Location: Unspecified
(42.5780°N, 0.0000°E)
Time: 11:23:25
(UTC+00:00)

H-2A DEB - Visible Passes

Search period start: 04 April 2026 00:00
Search period end: 14 April 2026 00:00
Orbit: 585 x 594 km, 98.2° (Epoch: 29 March)

Date Brightness Start Highest point End Pass type
(mag) Time Alt. Az. Time Alt. Az. Time Alt. Az.
9 Apr ? 00:55:32 11° N 00:55:32 11° N 00:55:45 10° N visible
10 Apr ? 01:03:09 12° N 01:03:09 12° N 01:03:32 10° N visible
11 Apr ? 01:10:44 13° N 01:10:44 13° N 01:11:16 10° N visible
12 Apr ? 01:18:19 14° N 01:18:19 14° N 01:18:59 10° N visible
13 Apr ? 01:25:53 15° N 01:25:53 15° N 01:26:39 10° N visible
